map of YYR home
Great Circle Mapper logo
YYR - Airport
Location
City:  Goose Bay, Newfoundland and Labrador, Canada
ICAO / IATA:CYYR / YYR

Details
Type:Airport (Airfield)
Use:Public/Civil, Military
Latitude:5319'09"N (53.319168)
Longitude:6025'33"W (-60.425832)
Datum:WGS 1984
Elevation:160 ft (49 m)
Runways:2
Longest:11046 × 209 ft (3367 × 63.5 m), paved

Time
Time Zone:UTC-3:30 (DST-2:30)
Local Time:

Weather
METAR:CYYR 240000Z 26005KT 15SM SCT120 SCT200 02/M04 A2995 RMK AC3CI0 SLP144
TAF:CYYR 232330Z 2400/2424 28010KT P6SM FEW040 BKN120
FM240200 28010KT P6SM FEW030
FM240600 26010KT P6SM BKN030
FM241600 26015G25KT P6SM -RA SCT020 OVC030
RMK NXT FCST BY 240600Z

Related Locations
Nearby:
Farthest:YWKS: 11465 mi / 18451 km
Wilkins Runway (Casey), Upper Peterson Glacier, AQ

Find:

   beyond  
but within

Other Information
Maps:
NOTAMs:
Links:
Sources:

  
flag of Canada
flag of Newfoundland and Labrador
  

Airport Diagram

Airport diagram for YYR

Airport diagram PDF

Sectional Chart

Flight Planning
at skyvector.com

Satellite Image

Google Maps Satellite View

 

Copyright © 2004-2014 Karl L. Swartz. All rights reserved.
The Great Circle Mapper name and logo are trademarks of the Great Circle Mapper.
All other trademarks mentioned herein belong to their respective owners.
Please see credits for attibutions and further copyright information.

  Follow gcmap on Facebook Follow gcmap on Twitter

hCard Microformat

Geo Microformat